Погода в Горном

Россия / Еврейская автономная область     48°08′31″N   132°26′26″E
темп.,
°C
ветер,
м/с
пор.,
м/с
влажн.,
%
обл.,
%
осадки,
мм/ч
давл.,
гПа
погр.,
м
9 мая, вс
вс901:00+5всв61586100 0.8 998651
04:00+5всв61689100 0.9 997681
07:00+4всв61691100 2.1 999722
10:00+4всв61493100 5.7 1001650
13:00+7всв51186100 0.7 1002720
16:00+8всв3980100 0.8 1002917
19:00+7св3983100 0.0 1004685
22:00+7ссв3684100 0.0 1006187
10 мая, пн
пн1001:00+6св4884100 0.0 1008801
04:00+5всв3886100 0.2 1009710
07:00+5в2976100 0.0 1010561
10:00+7вюв1267100 0.0 1011557
13:00+8з1265100 0.0 1011641
16:00+10сз4472100 0.1 1011972
19:00+9зсз3479100 0.1 1012600
22:00+8з1190100 0.5 101458
11 мая, вт
вт1101:00+8вюв0192100 0.2 101424
04:00+7в2391100 0.4 1015108
07:00+7вюв228385 0.0 1017133
10:00+9ююв126893 0.0 1018475
13:00+12юз226163 0.0 10171033
16:00+13ююз125783 0.1 10161292
19:00+12юв2363100 0.0 1016294
22:00+11юв236782 0.0 101657
12 мая, ср
ср1201:00+8юв2376100 0.0 101644
04:00+7юв348699 0.0 101569
07:00+8юв31285100 0.0 1013525
10:00+11юв51069100 0.0 1010803
13:00+12ю91565100 0.0 10091131
16:00+9ююв51290100 2.8 1007845
19:00+10ююв41294100 6.2 1006922
22:00+10ююв51293100 6.9 1006647
13 мая, чт
чт1301:00+9ю51194100 1.3 1006439
04:00+8ю489640 1.3 1006265
07:00+8ю38946 0.0 1006219
10:00+14юз410630 0.0 1006759
13:00+19зюз712294 0.0 10063040
16:00+20з611255 0.0 10063596
19:00+18ююз364199 0.0 1006214
22:00+13ю3453100 0.0 100659